183  
ASUS44 KMOB 180112  
RWRMOB  
REGIONAL WEATHER ROUNDUP  
NATIONAL WEATHER SERVICE MOBILE AL  
800 PM CDT THU AUG 17 2017  
 
NOTE: "FAIR" INDICATES FEW OR NO CLOUDS BELOW 12,000 FEET WITH NO  
SIGNIFICANT WEATHER AND/OR S TO VISIBILITY
.  
 
* THESE STATIONS ARE PART OF THE UNIVERSITY OF SOUTH ALABAMA  
MESONET AND ARE NOT UNDER NWS OR FAA QUALITY CONTROL.
 
 
ALZ061>064-180200-  
COASTAL ALABAMA  
 
CITY SKY/WX TMP DP RH WIND PRES REMARKS
 
MOBILE REG APT PTCLDY 83 76 79 S6 30.02F  
BROOKLEY FIELD CLEAR 86 75 69 SW3 30.02S HX 95  
USA CAMPUS* N/A 81 75 83 CALM 30.02S  
DOG RIVER* NOT AVBL  
 
 
CITY SKY/WX TMP DP RH WIND PRES REMARKS
 
GULF SHORES CLEAR 84 80 87 SW6 30.02S HX 97  
 

 
 
ALZ051>060-180200-  
INTERIOR SOUTHWEST AND SOUTH CENTRAL ALABAMA  
 
CITY SKY/WX TMP DP RH WIND PRES REMARKS
 
GREENVILLE CLEAR 84 74 71 CALM 30.02S  
EVERGREEN CLEAR 80 76 87 CALM 30.02S  
ATMORE* NOT AVBL  
ANDALUSIA/OPP CLEAR 83 74 74 CALM 30.02S  
ANDALUSIA* N/A 84 75 74 CALM 30.03S  
FLORALA APT NOT AVBL  
FLORALA* N/A 81 75 83 CALM 30.72R  
 

 
 
FLZ001>006-180200-  
WESTERN FLORIDA PANHANDLE  
 
CITY SKY/WX TMP DP RH WIND PRES REMARKS
 
PENSACOLA CLOUDY 89 74 60 W10 30.02R HX 98  
NAS PENSACOLA CLOUDY 84 77 79 W3 30.02R  
MILTON CLOUDY 81 78 91 CALM 30.02R  
WHTNG S FIELD CLOUDY 87 77 72 W5 30.02R HX 99  
 
 
CITY SKY/WX TMP DP RH WIND PRES REMARKS
 
JAY* N/A 84 72 65 CALM 30.01S  
DUKE FIELD PTCLDY 83 77 81 S5 30.02S  
CRESTVIEW PTCLDY 81 77 88 CALM 30.04R  
VALPARAISO PTCLDY 85 76 74 SW6 30.01S HX 95  
DESTIN CLEAR 89 76 65 VRB5 30.02R HX 100  
 

 
 
MSZ076-079-180200-  
INTERIOR SOUTHEAST MISSISSIPPI  
 
CITY SKY/WX TMP DP RH WIND PRES REMARKS
 
LEAKESVILLE* NOT AVBL  
AGRICOLA* N/A 82 79 89 CALM 30.00F  
 

 
 
MARINE OBSERVATIONS  
 
STATION/POSITION TIME TEMP WIND PRES WAVE
 
AIR SEA DIR/SP/G HT/PER  
(UTC) (F) (DEG/KT/KT) (MB) (FT/S)  
PASCAGOULA 0036 87 230/ 7/ 10 1016.2F  
PETIT BOIS ISLND 0036 87 220/ 11/ 12 1017.1F  
GRAND BAY 2330 89 240/ 7 1017.0S  
KATRINA CUT 0030 87 240/ 12 1016.3S  
CEDAR POINT 0030 87 250/ 11 1016.6R  
E DAUPHIN ISLAND 0000 87 230/ 7/ 9 1016.0S  
MIDDLE BAY LIGHT 0030 87 240/ 13 1016.3R  
USCG MOBILE BAY 0036 87 86 230/ 4/ 7 1017.1R  
STATE DOCKS 0036 89 86 1016.2R  
MEAHER PARK 0030 88 210/ 7 1016.3R  
WEEKS BAY 2345 88 N/A  
FORT MORGAN 0036 87 260/ 11/ 12 N/A  
12 S ORANGE BCH 0050 86 87 260/ 10/ 12 1016.5R 1/ 4  
PENSACOLA BAY 0036 88 89 1016.6R  
64 S DAUPHIN ISL 0050 87 89 240/ 6/ 6 1017.1R 1/ 6  
67 S FORT MORGAN 0030 86 260/ 4 1016.9R  
 

 
 
SELECTED LOCATIONS ACROSS THE REGION  
 
CITY SKY/WX TMP DP RH WIND PRES REMARKS
 
NEW ORLEANS MOCLDY 83 76 79 S8 29.99F  
GULFPORT CLEAR 85 78 80 S3 29.99F HX 96  
PASCAGOULA AP CLEAR 84 78 82 CALM 30.01S HX 95  
PASCAGOULA* NOT AVBL  
HATTIESBURG CLEAR 85 79 82 CALM 30.00R HX 98  
LAUREL CLEAR 81 78 91 CALM 30.00S  
MERIDIAN CLEAR 83 77 82 CALM 29.99R  
JACKSON CLEAR 82 76 81 S6 30.00R  
MONTGOMERY CLEAR 84 74 71 CALM 30.01R  
TROY CLEAR 81 79 94 W3 30.03R  
ASHFORD* N/A 84 75 74 CALM 30.03S  
DOTHAN CLEAR 85 75 72 NW7 30.05S  
PANAMA CITY CLEAR 83 76 79 W6 30.01R  
 

 
 
 
 
CLICK HERE TO GO TO PREVIOUS BULLETINS.

The Nexlab AL Page
The Nexlab FL Page
The Nexlab MS Page Main Text Page